CZ-2D DEB

Satellite information

Favourite Embed

Satellite Type and Status

DEBRISIN ORBIT

Key statistics

Satellite CZ-2D DEB at a glance.

Uptime

5442

Days in orbit

Revolutions

≈ 15.0

Per day

Orbit

SSO

Sun Synchronous Orbit

Inclination

97.7

Latest

Satellite identification and parameters

Extended collection of information and parameters for CZ-2D DEB.

Object identification

Identified? True

Debris? True

Object name: CZ-2D DEB

International designator: 2010-027D

Object number (NORAD): 38299

Object ID (CCSDS): 38299

Country: PEOPLES REPUBLIC OF CHINA (PRC)

Current information (Y/N): Y

RCS size: SMALL

Orbital parameters

Period: 95.803 minutes

Inclination: 97.7067 deg

SMA: 6935.531 km

Apoapsis: 625.269 km

Periapsis: 489.522 km

RAAN: 345.9071 deg

Eccentricy: 0.0097863

Argument of periapsis: 303.7892 deg

Mean anomaly: 55.4041 deg

Mean motion: 15.03083882 rev/day

Mean motion (dot): 0.00014865 rev/day2

B* drag term: 0.00099593 1/REarth

Two-line elements (TLE)

Creation date: May 9, 2025, 2:46 a.m.

Reference frame: TEME

Reference center: EARTH

Epoch: May 8, 2025, 1:10 a.m. UTC

TLE line 0: 0 CZ-2D DEB

TLE line 1: 1 38299U 10027D 25128.04880514 .00014865 00000-0 99593-3 0 9991

TLE line 2: 2 38299 97.7067 345.9071 0097863 303.7892 55.4041 15.03083882789699

Live tracking on map

Real-time ground track for satellite CZ-2D DEB.

In-orbit conjunctions

A list of the most updated potential collisions computed for object CZ-2D DEB.

Target Orbit TCA Probability of collision Miss distance Type
SL-14 R/B LEO 2024-09-19 01:41:35 0.0006380677 114.0 (m) ROCKET BODY

Associated space launch

CZ-2D DEB was lifted into orbit during the mission ‘Long March 2D | Shijian 12’, on board a Long March 2D space rocket.

The launch took place on June 15, 2010, 1:39 a.m. from Launch Area 4 (SLS-2 / 603).

For more information about the launch, click the button.

Launch to space Long March 2D | Shijian 12
Long March 2D | Shijian 12

Agency: N/A

Status: Launch Successful

Launch date: June 15, 2010, 1:39 a.m. UTC

Rocket: Long March 2D

Launch pad: Launch Area 4 (SLS-2 / 603)

Location: Jiuquan Satellite Launch Center, People's Republic of China

...

Latest news about this satellite

There are no fresh news available about this satellite. Check back as we update our databases every day.


Newsletter sign-up

Weekly statistics, charts and insights to help you stay on top of the space industry.